O3B FM20 (44112 NORAD) Tracking and Keplerian Element Data

This shows tracking and keplerian element data for the satellite.

Feedback or suggestion? Click here.




ElementValue
Catalog44112
NameO3B FM20
Epoch Orbit499
Epoch Day193.59862574
Epoch Year2019
RAAN10.3509
Inclination0.046
Eccentricity0.0002299
Argument of Perigee98.5677
Mean Anonmoly251.1036
Mean Motion5.00117456
Decay Rate-2.6E-07
L11 44112U 19020A 19193.59862574 -.00000026 00000-0 00000-0 0 9992
L22 44112 0.0460 10.3509 0002299 98.5677 251.1036 5.00117456 4995

Live tracking and technical data element details for O3B FM20 (NORAD 44112). O3B FM20 can be tracked NOW for your location showing map with azimuth and elevation plus other details from your city location.

Track the satellite on the map from your city or location and see movement details for azimuth, elevation, latitude, longitude, range, height, and movement on the map or in text.







IsCatalogInMostPopularTable: catalog: 44112, numindb: 34
Update: records affected: 1



GetName: 44112 O3B FM20

Hit Count: updated at: Tue, 16 Jul 2019 21:29:13 GMT